Location: downtown San Diego
(32.7310°N, 117.1990°W)
Time: 03:47:44
(UTC-07:00)

Cosmos 1812 Rocket - Pass Details

Date: 14 June 2018
Orbit: 604 x 633 km, 82.5° (Epoch: 18 June)

Event Time Altitude Azimuth Distance (km) Brightness Sun altitude
Rises 21:50:24 0° 353° (N) 2,864 7.8 -19.6°
Reaches altitude 10° 21:52:37 10° 354° (N) 1,959 6.9 -19.9°
Maximum altitude 21:56:57 89° 81° (E) 613 3.4 -20.5°
Enters shadow 21:58:03 50° 173° (S) 774 3.7 -20.7°
